Wetterdaten: Samstag, 10.01.2015
Datum Zeit Temperatur Luftfeuchte Luftdruck Regen Wind Richtung Richtung Taupunkt Windchill Windben
10.01.2015 00:02 8,4 C 79 % 1021,5 hPa 0,0 l/m 12,7 km/h (3 Bft) W-NW 292 5,0 C 0,7 C 15,1 km/h (3 Bft)
10.01.2015 00:07 8,5 C 79 % 1021,5 hPa 0,0 l/m 14,2 km/h (3 Bft) W 270 5,1 C -0,1 C 22,4 km/h (4 Bft)
10.01.2015 00:12 8,5 C 79 % 1021,5 hPa 0,0 l/m 15,0 km/h (3 Bft) W-SW 247 5,1 C -0,7 C 50,5 km/h (7 Bft)
10.01.2015 00:17 8,8 C 78 % 1021,4 hPa 0,0 l/m 13,8 km/h (3 Bft) W-SW 247 5,2 C 0,5 C 12,2 km/h (2 Bft)
10.01.2015 00:22 9,1 C 76 % 1021,4 hPa 0,0 l/m 16,4 km/h (3 Bft) W-SW 247 5,1 C -0,9 C 24,6 km/h (4 Bft)
10.01.2015 00:27 9,3 C 76 % 1021,4 hPa 0,0 l/m 15,8 km/h (3 Bft) W-SW 247 5,3 C 0,4 C 23,5 km/h (4 Bft)
10.01.2015 00:32 9,3 C 75 % 1021,4 hPa 0,0 l/m 15,9 km/h (3 Bft) S-SW 202 5,1 C 0,8 C 29,0 km/h (5 Bft)
10.01.2015 00:37 9,3 C 76 % 1021,1 hPa 0,0 l/m 14,8 km/h (3 Bft) W-SW 247 5,3 C 1,8 C 17,7 km/h (3 Bft)
10.01.2015 00:42 9,4 C 76 % 1021,1 hPa 0,0 l/m 14,8 km/h (3 Bft) W-NW 292 5,4 C 2,0 C 20,1 km/h (4 Bft)
10.01.2015 00:47 9,6 C 75 % 1021,1 hPa 0,0 l/m 15,0 km/h (3 Bft) W 270 5,4 C 2,0 C 34,1 km/h (5 Bft)
10.01.2015 00:52 9,6 C 75 % 1021,1 hPa 0,0 l/m 15,0 km/h (3 Bft) SW 225 5,4 C 2,2 C 10,1 km/h (2 Bft)
10.01.2015 00:57 9,8 C 75 % 1021,7 hPa 0,0 l/m 16,4 km/h (3 Bft) W-NW 292 5,6 C 1,4 C 14,5 km/h (3 Bft)
10.01.2015 01:02 9,7 C 75 % 1021,7 hPa 0,0 l/m 14,8 km/h (3 Bft) W-SW 247 5,5 C 2,4 C 10,5 km/h (2 Bft)
10.01.2015 01:07 9,7 C 75 % 1021,7 hPa 0,0 l/m 12,6 km/h (3 Bft) SW 225 5,5 C 4,0 C 20,6 km/h (4 Bft)
10.01.2015 01:12 9,8 C 75 % 1021,7 hPa 0,0 l/m 12,7 km/h (3 Bft) W-SW 247 5,6 C 4,0 C 14,6 km/h (3 Bft)
10.01.2015 01:17 9,9 C 75 % 1022,0 hPa 0,0 l/m 13,4 km/h (3 Bft) W 270 5,7 C 3,6 C 13,5 km/h (3 Bft)
10.01.2015 01:22 10,0 C 74 % 1022,0 hPa 0,0 l/m 13,4 km/h (3 Bft) W-SW 247 5,6 C 3,6 C 17,7 km/h (3 Bft)
10.01.2015 01:27 10,3 C 73 % 1022,0 hPa 0,0 l/m 15,1 km/h (3 Bft) W-SW 247 5,7 C 2,9 C 32,2 km/h (5 Bft)
10.01.2015 01:32 10,3 C 73 % 1022,0 hPa 0,0 l/m 16,4 km/h (3 Bft) W-SW 247 5,7 C 2,3 C 16,7 km/h (3 Bft)
10.01.2015 01:37 10,3 C 73 % 1021,8 hPa 0,0 l/m 15,4 km/h (3 Bft) S 180 5,7 C 2,9 C 11,3 km/h (2 Bft)
10.01.2015 01:42 10,4 C 73 % 1021,8 hPa 0,0 l/m 13,5 km/h (3 Bft) W 270 5,8 C 4,1 C 18,8 km/h (3 Bft)
10.01.2015 01:47 10,5 C 73 % 1021,8 hPa 0,0 l/m 14,0 km/h (3 Bft) W-SW 247 5,9 C 3,9 C 18,0 km/h (3 Bft)
10.01.2015 01:52 10,6 C 72 % 1021,8 hPa 0,0 l/m 15,1 km/h (3 Bft) W 270 5,8 C 3,5 C 24,0 km/h (4 Bft)
10.01.2015 01:57 10,7 C 72 % 1021,6 hPa 0,0 l/m 15,0 km/h (3 Bft) W-SW 247 5,9 C 3,7 C 17,5 km/h (3 Bft)
10.01.2015 02:02 10,7 C 72 % 1021,6 hPa 0,0 l/m 14,8 km/h (3 Bft) W-SW 247 5,9 C 3,8 C 22,4 km/h (4 Bft)
10.01.2015 02:07 10,8 C 72 % 1021,6 hPa 0,0 l/m 13,4 km/h (3 Bft) W-SW 247 6,0 C 4,8 C 12,7 km/h (3 Bft)
10.01.2015 02:12 11,0 C 71 % 1021,6 hPa 0,0 l/m 14,8 km/h (3 Bft) W-NW 292 5,9 C 4,0 C 18,0 km/h (3 Bft)
10.01.2015 02:17 11,0 C 71 % 1021,7 hPa 0,0 l/m 15,8 km/h (3 Bft) W 270 5,9 C 3,8 C 16,6 km/h (3 Bft)
10.01.2015 02:22 11,0 C 72 % 1021,7 hPa 0,0 l/m 15,1 km/h (3 Bft) W-SW 247 6,2 C 4,2 C 11,7 km/h (2 Bft)
10.01.2015 02:27 11,0 C 72 % 1021,7 hPa 0,0 l/m 15,0 km/h (3 Bft) SW 225 6,2 C 4,3 C 18,8 km/h (3 Bft)
10.01.2015 02:32 10,9 C 72 % 1021,7 hPa 0,0 l/m 14,0 km/h (3 Bft) SW 225 6,1 C 4,9 C 13,8 km/h (3 Bft)
10.01.2015 02:37 11,0 C 72 % 1021,8 hPa 0,0 l/m 12,2 km/h (2 Bft) S 180 6,2 C 6,0 C 12,9 km/h (3 Bft)
10.01.2015 02:42 11,1 C 72 % 1021,8 hPa 0,0 l/m 12,9 km/h (3 Bft) W-SW 247 6,2 C 5,5 C 18,0 km/h (3 Bft)
10.01.2015 02:47 11,2 C 71 % 1021,8 hPa 0,0 l/m 16,3 km/h (3 Bft) SW 225 6,1 C 3,7 C 23,3 km/h (4 Bft)
10.01.2015 02:52 11,1 C 72 % 1021,8 hPa 0,0 l/m 15,9 km/h (3 Bft) W-SW 247 6,2 C 4,0 C 16,7 km/h (3 Bft)
10.01.2015 02:57 11,1 C 72 % 1021,9 hPa 0,0 l/m 13,7 km/h (3 Bft) W 270 6,2 C 5,2 C 17,5 km/h (3 Bft)
10.01.2015 03:02 11,1 C 72 % 1021,9 hPa 0,0 l/m 13,5 km/h (3 Bft) W-NW 292 6,2 C 5,3 C 11,3 km/h (2 Bft)
10.01.2015 03:07 11,1 C 72 % 1021,9 hPa 0,0 l/m 13,8 km/h (3 Bft) W-SW 247 6,2 C 4,9 C 18,7 km/h (3 Bft)
10.01.2015 03:12 11,1 C 72 % 1021,9 hPa 0,0 l/m 13,7 km/h (3 Bft) SW 225 6,2 C 5,0 C 20,9 km/h (4 Bft)
10.01.2015 03:17 11,0 C 72 % 1021,8 hPa 0,0 l/m 14,0 km/h (3 Bft) W-SW 247 6,2 C 4,9 C 10,3 km/h (2 Bft)
10.01.2015 03:22 11,2 C 72 % 1021,8 hPa 0,0 l/m 14,2 km/h (3 Bft) SW 225 6,3 C 4,6 C 13,8 km/h (3 Bft)
10.01.2015 03:27 11,1 C 72 % 1021,8 hPa 0,0 l/m 13,2 km/h (3 Bft) W-SW 247 6,2 C 5,5 C 19,3 km/h (3 Bft)
10.01.2015 03:32 11,2 C 72 % 1021,8 hPa 0,0 l/m 13,5 km/h (3 Bft) W 270 6,3 C 5,4 C 26,1 km/h (4 Bft)
10.01.2015 03:37 11,4 C 72 % 1021,8 hPa 0,0 l/m 15,4 km/h (3 Bft) O 90 6,5 C 4,2 C 15,1 km/h (3 Bft)
10.01.2015 03:42 11,4 C 72 % 1021,8 hPa 0,0 l/m 15,0 km/h (3 Bft) W 270 6,5 C 4,6 C 19,3 km/h (3 Bft)
10.01.2015 03:47 11,3 C 72 % 1021,8 hPa 0,0 l/m 14,3 km/h (3 Bft) W 270 6,4 C 5,1 C 22,9 km/h (4 Bft)
10.01.2015 03:52 11,4 C 72 % 1021,8 hPa 0,0 l/m 14,2 km/h (3 Bft) NW 315 6,5 C 5,1 C 17,5 km/h (3 Bft)
10.01.2015 03:57 11,4 C 72 % 1021,8 hPa 0,0 l/m 14,6 km/h (3 Bft) W-SW 247 6,5 C 4,9 C 23,5 km/h (4 Bft)
10.01.2015 04:02 11,5 C 72 % 1021,8 hPa 0,0 l/m 14,3 km/h (3 Bft) S 180 6,6 C 5,2 C 14,0 km/h (3 Bft)
10.01.2015 04:07 11,5 C 71 % 1021,8 hPa 0,0 l/m 15,3 km/h (3 Bft) W-SW 247 6,4 C 4,6 C 32,2 km/h (5 Bft)
10.01.2015 04:12 11,5 C 71 % 1021,8 hPa 0,0 l/m 15,0 km/h (3 Bft) W-SW 247 6,4 C 5,0 C 14,0 km/h (3 Bft)
10.01.2015 04:17 11,5 C 71 % 1021,7 hPa 0,0 l/m 14,3 km/h (3 Bft) S-SW 202 6,4 C 5,2 C 19,6 km/h (3 Bft)
10.01.2015 04:22 11,4 C 71 % 1021,7 hPa 0,0 l/m 12,6 km/h (3 Bft) N-NO 22 6,3 C 6,3 C 32,8 km/h (5 Bft)
10.01.2015 04:27 11,5 C 71 % 1021,7 hPa 0,0 l/m 12,6 km/h (3 Bft) S 180 6,4 C 6,3 C 16,7 km/h (3 Bft)
10.01.2015 04:32 11,5 C 71 % 1021,7 hPa 0,0 l/m 13,4 km/h (3 Bft) N-NO 22 6,4 C 5,7 C 22,2 km/h (4 Bft)
10.01.2015 04:37 11,5 C 71 % 1021,6 hPa 0,0 l/m 14,6 km/h (3 Bft) W-SW 247 6,4 C 5,1 C 29,8 km/h (5 Bft)
10.01.2015 04:42 11,5 C 71 % 1021,6 hPa 0,0 l/m 15,1 km/h (3 Bft) W 270 6,4 C 4,7 C 20,4 km/h (4 Bft)
10.01.2015 04:47 11,5 C 71 % 1021,6 hPa 0,0 l/m 14,8 km/h (3 Bft) W 270 6,4 C 5,0 C 11,9 km/h (2 Bft)
10.01.2015 04:52 11,5 C 71 % 1021,6 hPa 0,0 l/m 14,0 km/h (3 Bft) SW 225 6,4 C 5,3 C 10,9 km/h (2 Bft)
10.01.2015 04:57 11,5 C 71 % 1021,8 hPa 0,0 l/m 12,2 km/h (2 Bft) W 270 6,4 C 6,5 C 10,9 km/h (2 Bft)
10.01.2015 05:02 11,5 C 71 % 1021,8 hPa 0,0 l/m 11,9 km/h (2 Bft) NO 45 6,4 C 6,7 C 17,1 km/h (3 Bft)
10.01.2015 05:07 11,6 C 70 % 1021,8 hPa 0,0 l/m 13,5 km/h (3 Bft) NW 315 6,3 C 5,9 C 20,0 km/h (4 Bft)
10.01.2015 05:12 11,5 C 70 % 1021,8 hPa 0,0 l/m 14,0 km/h (3 Bft) SO 135 6,2 C 5,6 C 13,8 km/h (3 Bft)
10.01.2015 05:17 11,8 C 69 % 1021,9 hPa 0,0 l/m 14,6 km/h (3 Bft) W-SW 247 6,3 C 5,4 C 28,3 km/h (4 Bft)
10.01.2015 05:22 11,8 C 69 % 1021,9 hPa 0,0 l/m 16,4 km/h (3 Bft) W 270 6,3 C 4,4 C 35,2 km/h (5 Bft)
10.01.2015 05:27 11,8 C 68 % 1021,9 hPa 0,0 l/m 15,4 km/h (3 Bft) W 270 6,1 C 5,1 C 13,7 km/h (3 Bft)
10.01.2015 05:32 11,8 C 68 % 1021,9 hPa 0,0 l/m 15,3 km/h (3 Bft) W-SW 247 6,1 C 5,3 C 14,3 km/h (3 Bft)
10.01.2015 05:37 11,9 C 68 % 1022,4 hPa 0,0 l/m 15,0 km/h (3 Bft) W 270 6,2 C 5,4 C 19,2 km/h (3 Bft)
10.01.2015 05:42 11,9 C 68 % 1022,4 hPa 0,0 l/m 14,6 km/h (3 Bft) W-SW 247 6,2 C 5,8 C 10,8 km/h (2 Bft)
10.01.2015 05:47 11,9 C 68 % 1022,4 hPa 0,0 l/m 14,8 km/h (3 Bft) SW 225 6,2 C 5,6 C 18,5 km/h (3 Bft)
10.01.2015 05:52 11,9 C 68 % 1022,4 hPa 0,0 l/m 14,2 km/h (3 Bft) SW 225 6,2 C 5,8 C 12,7 km/h (3 Bft)
10.01.2015 05:57 11,8 C 68 % 1022,4 hPa 0,0 l/m 15,0 km/h (3 Bft) W-SW 247 6,1 C 5,4 C 23,0 km/h (4 Bft)
10.01.2015 06:02 11,8 C 68 % 1022,4 hPa 0,0 l/m 16,3 km/h (3 Bft) W-SW 247 6,1 C 4,7 C 26,6 km/h (4 Bft)
10.01.2015 06:07 11,9 C 67 % 1022,4 hPa 0,0 l/m 16,7 km/h (3 Bft) W-SW 247 6,0 C 4,6 C 19,8 km/h (3 Bft)
10.01.2015 06:12 12,0 C 66 % 1022,4 hPa 0,0 l/m 16,3 km/h (3 Bft) W-SW 247 5,8 C 4,9 C 20,3 km/h (4 Bft)
10.01.2015 06:17 12,1 C 66 % 1022,7 hPa 0,0 l/m 17,7 km/h (3 Bft) SW 225 5,9 C 4,3 C 16,9 km/h (3 Bft)
10.01.2015 06:22 12,0 C 67 % 1022,7 hPa 0,0 l/m 16,6 km/h (3 Bft) NW 315 6,1 C 4,7 C 23,8 km/h (4 Bft)
10.01.2015 06:27 11,8 C 67 % 1022,7 hPa 0,0 l/m 12,7 km/h (3 Bft) W-SW 247 5,9 C 6,9 C 19,6 km/h (3 Bft)
10.01.2015 06:32 11,9 C 67 % 1022,7 hPa 0,0 l/m 12,7 km/h (3 Bft) W-SW 247 6,0 C 6,8 C 16,9 km/h (3 Bft)
10.01.2015 06:37 11,9 C 67 % 1022,9 hPa 0,0 l/m 13,0 km/h (3 Bft) W-SW 247 6,0 C 6,5 C 12,2 km/h (2 Bft)
10.01.2015 06:42 11,9 C 67 % 1022,9 hPa 0,0 l/m 11,7 km/h (2 Bft) W 270 6,0 C 7,4 C 16,4 km/h (3 Bft)
10.01.2015 06:47 11,9 C 67 % 1022,9 hPa 0,0 l/m 11,7 km/h (2 Bft) W-NW 292 6,0 C 7,6 C 17,5 km/h (3 Bft)
10.01.2015 06:52 12,0 C 66 % 1022,9 hPa 0,0 l/m 11,9 km/h (2 Bft) W-SW 247 5,8 C 7,4 C 17,2 km/h (3 Bft)
10.01.2015 06:57 11,9 C 67 % 1022,9 hPa 0,0 l/m 10,8 km/h (2 Bft) W 270 6,0 C 8,2 C 13,5 km/h (3 Bft)
10.01.2015 07:02 12,0 C 66 % 1022,9 hPa 0,0 l/m 10,8 km/h (2 Bft) W-NW 292 5,8 C 8,2 C 16,4 km/h (3 Bft)
10.01.2015 07:07 12,0 C 66 % 1022,9 hPa 0,0 l/m 11,3 km/h (2 Bft) W 270 5,8 C 7,8 C 26,1 km/h (4 Bft)
10.01.2015 07:12 12,1 C 66 % 1022,9 hPa 0,0 l/m 12,2 km/h (2 Bft) S-SW 202 5,9 C 7,3 C 17,9 km/h (3 Bft)
10.01.2015 07:17 12,2 C 66 % 1022,9 hPa 0,0 l/m 12,9 km/h (3 Bft) N 360 6,0 C 7,1 C 17,7 km/h (3 Bft)
10.01.2015 07:22 12,2 C 66 % 1022,9 hPa 0,0 l/m 11,9 km/h (2 Bft) W 270 6,0 C 7,7 C 20,3 km/h (4 Bft)
10.01.2015 07:27 12,2 C 65 % 1022,9 hPa 0,0 l/m 11,6 km/h (2 Bft) W 270 5,8 C 8,0 C 13,8 km/h (3 Bft)
10.01.2015 07:32 12,3 C 65 % 1022,9 hPa 0,0 l/m 11,7 km/h (2 Bft) W-SW 247 5,9 C 7,8 C 13,4 km/h (3 Bft)
10.01.2015 07:37 12,1 C 66 % 1022,8 hPa 0,0 l/m 11,3 km/h (2 Bft) W-NW 292 5,9 C 8,1 C 12,6 km/h (3 Bft)
10.01.2015 07:42 12,3 C 65 % 1022,8 hPa 0,0 l/m 11,6 km/h (2 Bft) W 270 5,9 C 8,0 C 13,5 km/h (3 Bft)
10.01.2015 07:47 12,4 C 64 % 1022,8 hPa 0,0 l/m 13,8 km/h (3 Bft) W-SW 247 5,8 C 6,6 C 14,3 km/h (3 Bft)
10.01.2015 07:52 12,4 C 64 % 1022,8 hPa 0,0 l/m 14,3 km/h (3 Bft) NW 315 5,8 C 6,4 C 16,1 km/h (3 Bft)
10.01.2015 07:57 12,5 C 63 % 1022,6 hPa 0,0 l/m 15,1 km/h (3 Bft) W-SW 247 5,7 C 6,2 C 26,2 km/h (4 Bft)
10.01.2015 08:02 12,4 C 63 % 1022,6 hPa 0,0 l/m 15,0 km/h (3 Bft) W-SW 247 5,6 C 6,3 C 18,7 km/h (3 Bft)
10.01.2015 08:07 12,6 C 62 % 1022,6 hPa 0,0 l/m 15,3 km/h (3 Bft) N-NW 337 5,5 C 6,0 C 20,3 km/h (4 Bft)
10.01.2015 08:12 12,5 C 62 % 1022,6 hPa 0,0 l/m 13,8 km/h (3 Bft) N-NO 22 5,4 C 7,0 C 15,8 km/h (3 Bft)
10.01.2015 08:17 12,3 C 63 % 1022,6 hPa 0,0 l/m 11,6 km/h (2 Bft) W-NW 292 5,5 C 8,1 C 20,0 km/h (4 Bft)
10.01.2015 08:22 12,4 C 62 % 1022,6 hPa 0,0 l/m 11,3 km/h (2 Bft) W-SW 247 5,3 C 8,4 C 18,3 km/h (3 Bft)
10.01.2015 08:27 12,5 C 61 % 1022,6 hPa 0,0 l/m 11,6 km/h (2 Bft) W-SW 247 5,2 C 8,1 C 12,9 km/h (3 Bft)
10.01.2015 08:32 12,5 C 61 % 1022,6 hPa 0,0 l/m 11,3 km/h (2 Bft) W 270 5,2 C 8,5 C 15,1 km/h (3 Bft)
10.01.2015 08:37 12,5 C 61 % 1022,4 hPa 0,0 l/m 10,5 km/h (2 Bft) W-SW 247 5,2 C 8,8 C 8,7 km/h (2 Bft)
10.01.2015 08:42 12,6 C 61 % 1022,4 hPa 0,0 l/m 10,5 km/h (2 Bft) W-SW 247 5,3 C 8,9 C 9,8 km/h (2 Bft)
10.01.2015 08:47 12,7 C 60 % 1022,4 hPa 0,0 l/m 11,9 km/h (2 Bft) NW 315 5,1 C 8,1 C 13,2 km/h (3 Bft)
10.01.2015 08:52 12,6 C 61 % 1022,4 hPa 0,0 l/m 11,1 km/h (2 Bft) W-SW 247 5,3 C 8,6 C 10,1 km/h (2 Bft)
10.01.2015 08:57 12,9 C 59 % 1022,2 hPa 0,0 l/m 11,3 km/h (2 Bft) W-SW 247 5,1 C 8,7 C 16,7 km/h (3 Bft)
10.01.2015 09:02 12,9 C 59 % 1022,2 hPa 0,0 l/m 12,4 km/h (3 Bft) W-SW 247 5,1 C 8,2 C 18,8 km/h (3 Bft)
10.01.2015 09:07 12,9 C 59 % 1022,2 hPa 0,0 l/m 13,2 km/h (3 Bft) SW 225 5,1 C 7,9 C 8,4 km/h (2 Bft)
10.01.2015 09:12 12,8 C 59 % 1022,2 hPa 0,0 l/m 12,2 km/h (2 Bft) W 270 5,0 C 8,5 C 20,0 km/h (4 Bft)
10.01.2015 09:17 13,2 C 58 % 1022,2 hPa 0,0 l/m 13,2 km/h (3 Bft) SW 225 5,1 C 8,1 C 12,2 km/h (2 Bft)
10.01.2015 09:22 13,1 C 58 % 1022,2 hPa 0,0 l/m 13,4 km/h (3 Bft) SW 225 5,0 C 8,1 C 10,1 km/h (2 Bft)
10.01.2015 09:27 13,1 C 58 % 1022,2 hPa 0,0 l/m 10,8 km/h (2 Bft) W-SW 247 5,0 C 9,6 C 7,7 km/h (2 Bft)
10.01.2015 09:32 13,3 C 57 % 1022,2 hPa 0,0 l/m 11,1 km/h (2 Bft) W-SW 247 5,0 C 9,5 C 21,1 km/h (4 Bft)
10.01.2015 09:37 13,5 C 57 % 1022,0 hPa 0,0 l/m 12,4 km/h (3 Bft) W-SW 247 5,2 C 9,0 C 14,0 km/h (3 Bft)
10.01.2015 09:42 13,5 C 57 % 1022,0 hPa 0,0 l/m 13,0 km/h (3 Bft) W-SW 247 5,2 C 8,8 C 15,4 km/h (3 Bft)
10.01.2015 09:47 13,7 C 56 % 1022,0 hPa 0,0 l/m 14,8 km/h (3 Bft) W 270 5,1 C 8,2 C 24,3 km/h (4 Bft)
10.01.2015 09:52 13,7 C 57 % 1022,0 hPa 0,0 l/m 15,4 km/h (3 Bft) N-NW 337 5,3 C 8,0 C 10,0 km/h (2 Bft)
10.01.2015 09:57 13,7 C 57 % 1021,4 hPa 0,0 l/m 13,5 km/h (3 Bft) W-SW 247 5,3 C 9,0 C 18,0 km/h (3 Bft)
10.01.2015 10:02 13,8 C 56 % 1021,4 hPa 0,0 l/m 12,2 km/h (2 Bft) W 270 5,2 C 9,9 C 13,7 km/h (3 Bft)
10.01.2015 10:07 13,6 C 57 % 1021,4 hPa 0,0 l/m 12,2 km/h (2 Bft) W 270 5,2 C 9,7 C 16,4 km/h (3 Bft)
10.01.2015 10:12 13,7 C 57 % 1021,4 hPa 0,0 l/m 12,6 km/h (3 Bft) SW 225 5,3 C 9,4 C 17,2 km/h (3 Bft)
10.01.2015 10:17 14,0 C 56 % 1021,2 hPa 0,0 l/m 13,4 km/h (3 Bft) W-SW 247 5,4 C 9,4 C 8,2 km/h (2 Bft)
10.01.2015 10:22 14,0 C 56 % 1021,2 hPa 0,0 l/m 14,5 km/h (3 Bft) W 270 5,4 C 9,0 C 17,7 km/h (3 Bft)
10.01.2015 10:27 13,8 C 57 % 1021,2 hPa 0,0 l/m 12,7 km/h (3 Bft) W-SW 247 5,4 C 9,8 C 25,3 km/h (4 Bft)
10.01.2015 10:32 13,9 C 56 % 1021,2 hPa 0,0 l/m 12,2 km/h (2 Bft) SW 225 5,3 C 10,0 C 21,1 km/h (4 Bft)
10.01.2015 10:37 13,9 C 56 % 1021,2 hPa 0,0 l/m 11,7 km/h (2 Bft) W 270 5,3 C 10,2 C 24,9 km/h (4 Bft)
10.01.2015 10:42 14,0 C 56 % 1021,2 hPa 0,0 l/m 12,4 km/h (3 Bft) W 270 5,4 C 9,7 C 22,0 km/h (4 Bft)
10.01.2015 10:47 14,0 C 56 % 1021,2 hPa 0,0 l/m 12,4 km/h (3 Bft) W-SW 247 5,4 C 9,9 C 11,9 km/h (2 Bft)
10.01.2015 10:52 14,1 C 56 % 1021,2 hPa 0,0 l/m 11,4 km/h (2 Bft) SW 225 5,5 C 10,5 C 15,0 km/h (3 Bft)
10.01.2015 10:57 14,3 C 55 % 1021,1 hPa 0,0 l/m 12,7 km/h (3 Bft) W 270 5,4 C 9,9 C 16,1 km/h (3 Bft)
10.01.2015 11:02 14,2 C 56 % 1021,1 hPa 0,0 l/m 12,6 km/h (3 Bft) W-SW 247 5,6 C 10,1 C 10,5 km/h (2 Bft)
10.01.2015 11:07 14,2 C 56 % 1021,1 hPa 0,0 l/m 10,5 km/h (2 Bft) W-SW 247 5,6 C 11,3 C 10,6 km/h (2 Bft)
10.01.2015 11:12 14,3 C 55 % 1021,1 hPa 0,0 l/m 10,8 km/h (2 Bft) W 270 5,4 C 11,2 C 18,7 km/h (3 Bft)
10.01.2015 11:17 14,3 C 55 % 1020,7 hPa 0,0 l/m 11,4 km/h (2 Bft) W-NW 292 5,4 C 11,0 C 8,0 km/h (2 Bft)
10.01.2015 11:22 14,3 C 55 % 1020,7 hPa 0,0 l/m 12,6 km/h (3 Bft) S-SW 202 5,4 C 10,4 C 13,0 km/h (3 Bft)
10.01.2015 11:27 14,3 C 55 % 1020,7 hPa 0,0 l/m 12,4 km/h (3 Bft) SW 225 5,4 C 10,3 C 16,7 km/h (3 Bft)
10.01.2015 11:32 14,2 C 55 % 1020,7 hPa 0,0 l/m 11,9 km/h (2 Bft) NW 315 5,3 C 10,5 C 12,7 km/h (3 Bft)
10.01.2015 11:37 14,3 C 55 % 1020,3 hPa 0,0 l/m 12,7 km/h (3 Bft) W-SW 247 5,4 C 9,9 C 15,9 km/h (3 Bft)
10.01.2015 11:42 14,2 C 55 % 1020,3 hPa 0,0 l/m 11,9 km/h (2 Bft) SW 225 5,3 C 10,4 C 12,7 km/h (3 Bft)
10.01.2015 11:47 14,3 C 55 % 1020,3 hPa 0,0 l/m 12,4 km/h (3 Bft) W 270 5,4 C 10,0 C 27,8 km/h (4 Bft)
10.01.2015 11:52 14,3 C 54 % 1020,3 hPa 0,0 l/m 12,6 km/h (3 Bft) W-SW 247 5,1 C 10,1 C 18,0 km/h (3 Bft)
10.01.2015 11:57 14,3 C 54 % 1019,8 hPa 0,0 l/m 13,0 km/h (3 Bft) SW 225 5,1 C 9,9 C 16,7 km/h (3 Bft)
10.01.2015 12:02 14,2 C 54 % 1019,8 hPa 0,0 l/m 12,1 km/h (2 Bft) W 270 5,0 C 10,4 C 12,6 km/h (3 Bft)
10.01.2015 12:07 14,4 C 53 % 1019,8 hPa 0,0 l/m 10,5 km/h (2 Bft) W 270 4,9 C 11,3 C 10,3 km/h (2 Bft)
10.01.2015 12:12 14,5 C 53 % 1019,8 hPa 0,0 l/m 11,9 km/h (2 Bft) SW 225 5,0 C 10,5 C 25,6 km/h (4 Bft)
10.01.2015 12:17 14,4 C 53 % 1019,8 hPa 0,0 l/m 12,1 km/h (2 Bft) W 270 4,9 C 10,5 C 6,9 km/h (2 Bft)
10.01.2015 12:22 14,3 C 53 % 1019,8 hPa 0,0 l/m 11,7 km/h (2 Bft) W 270 4,9 C 10,6 C 22,5 km/h (4 Bft)
10.01.2015 12:27 14,5 C 51 % 1019,8 hPa 0,0 l/m 13,0 km/h (3 Bft) W-SW 247 4,5 C 9,9 C 24,5 km/h (4 Bft)
10.01.2015 12:32 14,5 C 52 % 1019,8 hPa 0,0 l/m 13,2 km/h (3 Bft) W-SW 247 4,8 C 9,8 C 13,5 km/h (3 Bft)
10.01.2015 12:37 14,4 C 51 % 1019,4 hPa 0,0 l/m 12,1 km/h (2 Bft) W 270 4,4 C 10,4 C 24,5 km/h (4 Bft)
10.01.2015 12:42 14,4 C 51 % 1019,4 hPa 0,0 l/m 11,4 km/h (2 Bft) W-SW 247 4,4 C 10,8 C 17,2 km/h (3 Bft)
10.01.2015 12:47 14,4 C 50 % 1019,4 hPa 0,0 l/m 11,9 km/h (2 Bft) W-SW 247 4,1 C 10,6 C 24,9 km/h (4 Bft)
10.01.2015 12:52 14,7 C 49 % 1019,4 hPa 0,0 l/m 12,9 km/h (3 Bft) W-SW 247 4,1 C 10,2 C 16,3 km/h (3 Bft)
10.01.2015 12:57 15,0 C 47 % 1019,5 hPa 0,0 l/m 14,6 km/h (3 Bft) W 270 3,8 C 9,6 C 12,4 km/h (3 Bft)
10.01.2015 13:02 14,8 C 48 % 1019,5 hPa 0,0 l/m 13,4 km/h (3 Bft) W-SW 247 3,9 C 10,4 C 11,9 km/h (2 Bft)
10.01.2015 13:07 15,0 C 47 % 1019,5 hPa 0,0 l/m 12,4 km/h (3 Bft) W 270 3,8 C 11,2 C 11,4 km/h (2 Bft)
10.01.2015 13:12 14,9 C 47 % 1019,5 hPa 0,0 l/m 11,9 km/h (2 Bft) W-SW 247 3,7 C 11,4 C 26,2 km/h (4 Bft)
10.01.2015 13:17 14,8 C 48 % 1019,1 hPa 0,0 l/m 10,1 km/h (2 Bft) W-SW 247 3,9 C 12,3 C 9,7 km/h (2 Bft)
10.01.2015 13:22 15,0 C 46 % 1019,1 hPa 0,0 l/m 11,7 km/h (2 Bft) W-NW 292 3,5 C 11,4 C 20,0 km/h (4 Bft)
10.01.2015 13:27 15,0 C 46 % 1019,1 hPa 0,0 l/m 13,0 km/h (3 Bft) W-SW 247 3,5 C 10,8 C 12,4 km/h (3 Bft)
10.01.2015 13:32 14,9 C 46 % 1019,1 hPa 0,0 l/m 13,2 km/h (3 Bft) W 270 3,4 C 10,8 C 15,8 km/h (3 Bft)
10.01.2015 13:37 14,7 C 48 % 1018,5 hPa 0,0 l/m 10,5 km/h (2 Bft) W 270 3,8 C 12,0 C 14,8 km/h (3 Bft)
10.01.2015 13:42 14,7 C 48 % 1018,5 hPa 0,0 l/m 9,3 km/h (2 Bft) W-SW 247 3,8 C 12,7 C 10,1 km/h (2 Bft)
10.01.2015 13:47 14,9 C 47 % 1018,5 hPa 0,0 l/m 10,6 km/h (2 Bft) SW 225 3,7 C 12,0 C 9,2 km/h (2 Bft)
10.01.2015 13:52 14,9 C 47 % 1018,5 hPa 0,0 l/m 10,6 km/h (2 Bft) W 270 3,7 C 12,0 C 10,5 km/h (2 Bft)
10.01.2015 13:57 14,9 C 47 % 1018,6 hPa 0,0 l/m 10,6 km/h (2 Bft) W 270 3,7 C 12,0 C 8,0 km/h (2 Bft)
10.01.2015 14:02 14,9 C 48 % 1018,6 hPa 0,0 l/m 10,0 km/h (2 Bft) S-SW 202 4,0 C 12,3 C 13,4 km/h (3 Bft)
10.01.2015 14:07 15,0 C 47 % 1018,6 hPa 0,0 l/m 10,9 km/h (2 Bft) W 270 3,8 C 11,8 C 14,5 km/h (3 Bft)
10.01.2015 14:12 15,1 C 48 % 1018,6 hPa 0,0 l/m 12,6 km/h (3 Bft) W 270 4,2 C 11,1 C 21,4 km/h (4 Bft)
10.01.2015 14:17 15,3 C 48 % 1019,1 hPa 0,0 l/m 11,9 km/h (2 Bft) W 270 4,4 C 12,5 C 18,2 km/h (3 Bft)
10.01.2015 14:22 15,3 C 47 % 1019,1 hPa 0,0 l/m 10,0 km/h (2 Bft) W-NW 292 4,1 C 14,0 C 15,3 km/h (3 Bft)
10.01.2015 14:27 15,4 C 45 % 1019,1 hPa 0,0 l/m 11,9 km/h (2 Bft) SW 225 3,5 C 13,7 C 12,7 km/h (3 Bft)
10.01.2015 14:32 15,2 C 45 % 1019,1 hPa 0,0 l/m 15,3 km/h (3 Bft) SW 225 3,4 C 11,6 C 11,9 km/h (2 Bft)
10.01.2015 14:37 14,8 C 47 % 1018,6 hPa 0,0 l/m 13,0 km/h (3 Bft) SW 225 3,6 C 11,4 C 15,9 km/h (3 Bft)
10.01.2015 14:42 14,7 C 47 % 1018,6 hPa 0,0 l/m 10,9 km/h (2 Bft) W-SW 247 3,5 C 12,3 C 25,1 km/h (4 Bft)
10.01.2015 14:47 14,7 C 47 % 1018,6 hPa 0,0 l/m 11,9 km/h (2 Bft) SW 225 3,5 C 11,3 C 17,4 km/h (3 Bft)
10.01.2015 14:52 14,5 C 47 % 1018,6 hPa 0,0 l/m 11,4 km/h (2 Bft) SW 225 3,3 C 11,5 C 13,8 km/h (3 Bft)
10.01.2015 14:57 14,5 C 46 % 1018,2 hPa 0,0 l/m 11,1 km/h (2 Bft) W-SW 247 3,0 C 11,3 C 14,8 km/h (3 Bft)
10.01.2015 15:00 14,5 C 46 % 1018,2 hPa 0,0 l/m 11,1 km/h (2 Bft) W-SW 247 3,0 C 11,3 C 14,8 km/h (3 Bft)
10.01.2015 15:05 14,4 C 46 % 1018,2 hPa 0,0 l/m 10,9 km/h (2 Bft) W 270 2,9 C 11,7 C 22,5 km/h (4 Bft)
10.01.2015 15:10 14,5 C 46 % 1018,2 hPa 0,0 l/m 12,9 km/h (3 Bft) W 270 3,0 C 10,4 C 17,4 km/h (3 Bft)
10.01.2015 15:15 14,0 C 47 % 1018,2 hPa 0,0 l/m 12,2 km/h (2 Bft) W 270 2,9 C 10,3 C 10,5 km/h (2 Bft)
10.01.2015 15:20 14,0 C 47 % 1018,1 hPa 0,0 l/m 11,6 km/h (2 Bft) S-SW 202 2,9 C 10,4 C 14,6 km/h (3 Bft)
10.01.2015 15:25 14,1 C 47 % 1018,1 hPa 0,0 l/m 11,9 km/h (2 Bft) W-SW 247 3,0 C 10,0 C 8,9 km/h (2 Bft)
10.01.2015 15:30 13,9 C 47 % 1018,1 hPa 0,0 l/m 11,4 km/h (2 Bft) SW 225 2,8 C 9,9 C 19,6 km/h (3 Bft)
10.01.2015 15:35 13,9 C 47 % 1018,1 hPa 0,0 l/m 10,5 km/h (2 Bft) W-SW 247 2,8 C 10,5 C 9,8 km/h (2 Bft)
10.01.2015 15:40 13,8 C 46 % 1017,8 hPa 0,0 l/m 11,3 km/h (2 Bft) W 270 2,4 C 9,8 C 17,1 km/h (3 Bft)
10.01.2015 15:45 14,0 C 45 % 1017,8 hPa 0,0 l/m 11,7 km/h (2 Bft) SW 225 2,3 C 9,8 C 11,9 km/h (2 Bft)
10.01.2015 15:50 13,8 C 45 % 1017,8 hPa 0,0 l/m 12,7 km/h (3 Bft) W-SW 247 2,1 C 9,2 C 24,8 km/h (4 Bft)
10.01.2015 15:55 13,9 C 44 % 1017,8 hPa 0,0 l/m 12,6 km/h (3 Bft) W 270 1,9 C 9,2 C 11,6 km/h (2 Bft)
10.01.2015 16:00 14,0 C 44 % 1017,8 hPa 0,0 l/m 12,4 km/h (3 Bft) W 270 1,9 C 9,3 C 8,9 km/h (2 Bft)
10.01.2015 16:05 13,8 C 44 % 1017,8 hPa 0,0 l/m 11,3 km/h (2 Bft) W-SW 247 1,8 C 10,1 C 15,6 km/h (3 Bft)
10.01.2015 16:10 13,6 C 44 % 1017,8 hPa 0,0 l/m 10,6 km/h (2 Bft) W-SW 247 1,6 C 10,2 C 25,7 km/h (4 Bft)
10.01.2015 16:15 13,8 C 44 % 1017,8 hPa 0,0 l/m 10,8 km/h (2 Bft) W 270 1,8 C 10,2 C 13,2 km/h (3 Bft)
10.01.2015 16:20 13,3 C 48 % 1018,3 hPa 0,0 l/m 12,6 km/h (3 Bft) W 270 2,5 C 8,8 C 15,9 km/h (3 Bft)
10.01.2015 16:25 12,9 C 54 % 1018,3 hPa 0,0 l/m 12,1 km/h (2 Bft) W 270 3,8 C 8,5 C 10,0 km/h (2 Bft)
10.01.2015 16:30 12,5 C 57 % 1018,3 hPa 0,0 l/m 12,6 km/h (3 Bft) W 270 4,2 C 7,5 C 17,1 km/h (3 Bft)
10.01.2015 16:35 12,4 C 58 % 1018,3 hPa 0,0 l/m 13,2 km/h (3 Bft) W-SW 247 4,4 C 6,9 C 14,0 km/h (3 Bft)
10.01.2015 16:40 12,3 C 58 % 1018,5 hPa 0,0 l/m 15,0 km/h (3 Bft) W-SW 247 4,3 C 5,6 C 12,6 km/h (3 Bft)
10.01.2015 16:45 12,3 C 58 % 1018,5 hPa 0,0 l/m 15,6 km/h (3 Bft) W 270 4,3 C 5,1 C 21,4 km/h (4 Bft)
10.01.2015 16:50 12,3 C 58 % 1018,5 hPa 0,0 l/m 16,1 km/h (3 Bft) W-SW 247 4,3 C 4,8 C 17,1 km/h (3 Bft)
10.01.2015 16:55 12,2 C 58 % 1018,5 hPa 0,0 l/m 17,2 km/h (3 Bft) W-SW 247 4,2 C 4,0 C 25,1 km/h (4 Bft)
10.01.2015 17:00 11,8 C 59 % 1018,4 hPa 0,0 l/m 15,0 km/h (3 Bft) W 270 4,1 C 5,3 C 23,3 km/h (4 Bft)
10.01.2015 17:05 12,0 C 59 % 1018,4 hPa 0,0 l/m 14,2 km/h (3 Bft) W-SW 247 4,2 C 5,4 C 21,7 km/h (4 Bft)
10.01.2015 17:10 12,1 C 59 % 1018,4 hPa 0,0 l/m 15,3 km/h (3 Bft) W 270 4,3 C 4,8 C 29,9 km/h (5 Bft)
10.01.2015 17:15 11,9 C 59 % 1018,4 hPa 0,0 l/m 14,5 km/h (3 Bft) W-SW 247 4,1 C 5,2 C 23,7 km/h (4 Bft)
10.01.2015 17:20 11,9 C 59 % 1018,3 hPa 0,0 l/m 12,7 km/h (3 Bft) S-SW 202 4,1 C 6,1 C 14,8 km/h (3 Bft)
10.01.2015 17:22 11,7 C 59 % 1018,3 hPa 0,0 l/m 12,2 km/h (2 Bft) SW 225 4,0 C 6,3 C 12,7 km/h (3 Bft)
10.01.2015 17:27 11,8 C 59 % 1018,3 hPa 0,0 l/m 12,6 km/h (3 Bft) SW 225 4,1 C 6,1 C 17,7 km/h (3 Bft)
10.01.2015 17:32 11,6 C 59 % 1018,3 hPa 0,0 l/m 12,1 km/h (2 Bft) W-SW 247 3,9 C 6,5 C 8,5 km/h (2 Bft)
10.01.2015 17:37 11,5 C 59 % 1018,2 hPa 0,0 l/m 10,5 km/h (2 Bft) W-SW 247 3,8 C 7,3 C 18,2 km/h (3 Bft)
10.01.2015 17:42 11,4 C 59 % 1018,2 hPa 0,0 l/m 9,2 km/h (2 Bft) S 180 3,7 C 8,2 C 11,9 km/h (2 Bft)
10.01.2015 17:47 11,5 C 59 % 1018,2 hPa 0,0 l/m 9,7 km/h (2 Bft) SW 225 3,8 C 7,8 C 20,9 km/h (4 Bft)
10.01.2015 17:52 11,5 C 58 % 1018,2 hPa 0,0 l/m 10,1 km/h (2 Bft) W-SW 247 3,5 C 7,4 C 15,8 km/h (3 Bft)
10.01.2015 17:57 11,8 C 57 % 1018,2 hPa 0,0 l/m 10,6 km/h (2 Bft) W-SW 247 3,6 C 7,3 C 13,7 km/h (3 Bft)
10.01.2015 18:02 12,1 C 56 % 1018,2 hPa 0,0 l/m 12,7 km/h (3 Bft) NW 315 3,6 C 6,2 C 27,4 km/h (4 Bft)
10.01.2015 18:07 12,2 C 55 % 1018,2 hPa 0,0 l/m 13,5 km/h (3 Bft) W-NW 292 3,4 C 6,1 C 14,0 km/h (3 Bft)
10.01.2015 18:12 12,5 C 55 % 1018,2 hPa 0,0 l/m 14,6 km/h (3 Bft) W 270 3,7 C 5,8 C 18,7 km/h (3 Bft)
10.01.2015 18:17 12,5 C 54 % 1018,4 hPa 0,0 l/m 15,4 km/h (3 Bft) O-SO 112 3,5 C 5,5 C 25,1 km/h (4 Bft)
10.01.2015 18:22 12,6 C 54 % 1018,4 hPa 0,0 l/m 15,4 km/h (3 Bft) W-SW 247 3,5 C 5,8 C 22,5 km/h (4 Bft)
10.01.2015 18:27 12,5 C 55 % 1018,4 hPa 0,0 l/m 16,4 km/h (3 Bft) W-SW 247 3,7 C 5,3 C 14,3 km/h (3 Bft)
10.01.2015 18:32 12,4 C 55 % 1018,4 hPa 0,0 l/m 15,3 km/h (3 Bft) W-SW 247 3,6 C 5,7 C 19,3 km/h (3 Bft)
10.01.2015 18:37 12,2 C 56 % 1018,3 hPa 0,0 l/m 12,1 km/h (2 Bft) W-SW 247 3,7 C 7,3 C 23,0 km/h (4 Bft)
10.01.2015 18:42 12,2 C 56 % 1018,3 hPa 0,0 l/m 11,7 km/h (2 Bft) NW 315 3,7 C 7,6 C 18,7 km/h (3 Bft)
10.01.2015 18:47 12,2 C 56 % 1018,3 hPa 0,0 l/m 13,4 km/h (3 Bft) SW 225 3,7 C 6,2 C 17,4 km/h (3 Bft)
10.01.2015 18:52 12,1 C 56 % 1018,3 hPa 0,0 l/m 11,6 km/h (2 Bft) S-SW 202 3,6 C 7,3 C 13,0 km/h (3 Bft)
10.01.2015 18:57 12,2 C 57 % 1018,4 hPa 0,0 l/m 12,7 km/h (3 Bft) SW 225 3,9 C 6,8 C 13,7 km/h (3 Bft)
10.01.2015 19:02 12,1 C 57 % 1018,4 hPa 0,0 l/m 12,2 km/h (2 Bft) W 270 3,8 C 7,1 C 13,2 km/h (3 Bft)
10.01.2015 19:07 11,9 C 58 % 1018,4 hPa 0,0 l/m 9,2 km/h (2 Bft) W-SW 247 3,9 C 8,9 C 6,9 km/h (2 Bft)
10.01.2015 19:12 12,0 C 58 % 1018,4 hPa 0,0 l/m 8,9 km/h (2 Bft) W 270 4,0 C 9,0 C 14,0 km/h (3 Bft)
10.01.2015 19:17 12,2 C 57 % 1018,6 hPa 0,0 l/m 10,1 km/h (2 Bft) W-SW 247 3,9 C 8,4 C 8,0 km/h (2 Bft)
10.01.2015 19:22 12,1 C 58 % 1018,6 hPa 0,0 l/m 10,3 km/h (2 Bft) W-SW 247 4,1 C 8,4 C 22,4 km/h (4 Bft)
10.01.2015 19:27 12,3 C 57 % 1018,6 hPa 0,0 l/m 10,6 km/h (2 Bft) W-SW 247 4,0 C 8,5 C 15,6 km/h (3 Bft)
10.01.2015 19:32 12,2 C 58 % 1018,6 hPa 0,0 l/m 10,5 km/h (2 Bft) W-SW 247 4,2 C 8,7 C 16,3 km/h (3 Bft)
10.01.2015 19:37 12,4 C 57 % 1018,5 hPa 0,0 l/m 11,6 km/h (2 Bft) W-SW 247 4,1 C 8,0 C 11,1 km/h (2 Bft)
10.01.2015 19:42 12,3 C 58 % 1018,5 hPa 0,0 l/m 12,2 km/h (2 Bft) W-SW 247 4,3 C 7,7 C 9,8 km/h (2 Bft)
10.01.2015 19:47 12,3 C 58 % 1018,5 hPa 0,0 l/m 10,8 km/h (2 Bft) NW 315 4,3 C 8,5 C 10,0 km/h (2 Bft)
10.01.2015 19:52 12,3 C 58 % 1018,5 hPa 0,0 l/m 10,9 km/h (2 Bft) W 270 4,3 C 8,4 C 17,1 km/h (3 Bft)
10.01.2015 19:57 12,3 C 58 % 1018,6 hPa 0,0 l/m 11,1 km/h (2 Bft) W-SW 247 4,3 C 8,3 C 13,2 km/h (3 Bft)
10.01.2015 20:02 12,3 C 58 % 1018,6 hPa 0,0 l/m 11,7 km/h (2 Bft) W-SW 247 4,3 C 7,9 C 8,4 km/h (2 Bft)
10.01.2015 20:07 12,2 C 58 % 1018,6 hPa 0,0 l/m 11,4 km/h (2 Bft) W 270 4,2 C 8,1 C 10,5 km/h (2 Bft)
10.01.2015 20:12 12,1 C 58 % 1018,6 hPa 0,0 l/m 10,6 km/h (2 Bft) W-SW 247 4,1 C 8,6 C 17,1 km/h (3 Bft)
10.01.2015 20:17 12,2 C 58 % 1018,4 hPa 0,0 l/m 11,4 km/h (2 Bft) W-SW 247 4,2 C 7,8 C 15,1 km/h (3 Bft)
10.01.2015 20:22 12,1 C 58 % 1018,4 hPa 0,0 l/m 11,7 km/h (2 Bft) W-SW 247 4,1 C 7,7 C 13,8 km/h (3 Bft)
10.01.2015 20:27 12,1 C 59 % 1018,4 hPa 0,0 l/m 10,9 km/h (2 Bft) W-SW 247 4,3 C 8,1 C 17,2 km/h (3 Bft)
10.01.2015 20:32 12,0 C 59 % 1018,4 hPa 0,0 l/m 10,1 km/h (2 Bft) W 270 4,2 C 8,6 C 10,8 km/h (2 Bft)
10.01.2015 20:37 11,9 C 59 % 1018,2 hPa 0,0 l/m 11,9 km/h (2 Bft) W-SW 247 4,1 C 7,3 C 13,2 km/h (3 Bft)
10.01.2015 20:42 11,8 C 59 % 1018,2 hPa 0,0 l/m 11,9 km/h (2 Bft) W 270 4,1 C 7,0 C 11,4 km/h (2 Bft)
10.01.2015 20:47 11,8 C 60 % 1018,2 hPa 0,0 l/m 11,6 km/h (2 Bft) W 270 4,3 C 7,3 C 14,0 km/h (3 Bft)
10.01.2015 20:52 11,9 C 60 % 1018,2 hPa 0,0 l/m 13,4 km/h (3 Bft) W-NW 292 4,4 C 6,2 C 18,0 km/h (3 Bft)
10.01.2015 20:57 11,8 C 61 % 1018,2 hPa 0,0 l/m 13,4 km/h (3 Bft) W-SW 247 4,5 C 6,2 C 14,6 km/h (3 Bft)
10.01.2015 21:02 11,7 C 62 % 1018,2 hPa 0,0 l/m 12,1 km/h (2 Bft) SW 225 4,7 C 6,9 C 10,6 km/h (2 Bft)
10.01.2015 21:07 11,6 C 62 % 1018,2 hPa 0,0 l/m 10,6 km/h (2 Bft) W 270 4,6 C 7,7 C 18,7 km/h (3 Bft)
10.01.2015 21:12 11,5 C 63 % 1018,2 hPa 0,0 l/m 11,1 km/h (2 Bft) W-SW 247 4,7 C 7,2 C 26,2 km/h (4 Bft)
10.01.2015 21:17 11,3 C 65 % 1018,6 hPa 0,0 l/m 11,6 km/h (2 Bft) SW 225 5,0 C 6,8 C 12,4 km/h (3 Bft)
10.01.2015 21:22 11,1 C 66 % 1018,6 hPa 0,0 l/m 12,2 km/h (2 Bft) SW 225 5,0 C 6,2 C 11,1 km/h (2 Bft)
10.01.2015 21:27 10,8 C 68 % 1018,6 hPa 0,0 l/m 11,1 km/h (2 Bft) SW 225 5,1 C 6,4 C 15,0 km/h (3 Bft)
10.01.2015 21:32 10,8 C 68 % 1018,6 hPa 0,0 l/m 12,4 km/h (3 Bft) W-SW 247 5,1 C 5,4 C 26,2 km/h (4 Bft)
10.01.2015 21:37 10,6 C 69 % 1018,3 hPa 0,0 l/m 13,5 km/h (3 Bft) W-SW 247 5,2 C 4,4 C 15,6 km/h (3 Bft)
10.01.2015 21:42 10,4 C 69 % 1018,3 hPa 0,0 l/m 11,6 km/h (2 Bft) W-SW 247 5,0 C 5,2 C 14,2 km/h (3 Bft)
10.01.2015 21:47 10,3 C 70 % 1018,3 hPa 0,0 l/m 9,2 km/h (2 Bft) W-SW 247 5,1 C 6,9 C 19,2 km/h (3 Bft)
10.01.2015 21:52 10,3 C 70 % 1018,3 hPa 0,0 l/m 9,3 km/h (2 Bft) SW 225 5,1 C 6,7 C 9,7 km/h (2 Bft)
10.01.2015 21:57 10,3 C 70 % 1018,1 hPa 0,0 l/m 9,2 km/h (2 Bft) W-SW 247 5,1 C 6,8 C 14,2 km/h (3 Bft)
10.01.2015 22:02 10,3 C 70 % 1018,1 hPa 0,0 l/m 9,2 km/h (2 Bft) SW 225 5,1 C 6,9 C 10,5 km/h (2 Bft)
10.01.2015 22:07 10,5 C 69 % 1018,1 hPa 0,0 l/m 10,9 km/h (2 Bft) W 270 5,1 C 5,6 C 15,1 km/h (3 Bft)
10.01.2015 22:12 10,5 C 69 % 1018,1 hPa 0,0 l/m 10,8 km/h (2 Bft) W 270 5,1 C 5,8 C 12,1 km/h (2 Bft)
10.01.2015 22:17 10,5 C 69 % 1018,1 hPa 0,0 l/m 11,1 km/h (2 Bft) NW 315 5,1 C 5,6 C 12,7 km/h (3 Bft)
10.01.2015 22:22 10,4 C 69 % 1018,1 hPa 0,0 l/m 11,1 km/h (2 Bft) W 270 5,0 C 5,6 C 16,1 km/h (3 Bft)
10.01.2015 22:27 10,4 C 69 % 1018,1 hPa 0,0 l/m 12,4 km/h (3 Bft) W-SW 247 5,0 C 4,7 C 14,0 km/h (3 Bft)
10.01.2015 22:32 10,4 C 69 % 1018,1 hPa 0,0 l/m 12,7 km/h (3 Bft) W-SW 247 5,0 C 4,5 C 17,7 km/h (3 Bft)
10.01.2015 22:37 10,5 C 69 % 1018,0 hPa 0,0 l/m 12,7 km/h (3 Bft) W-SW 247 5,1 C 4,7 C 13,7 km/h (3 Bft)
10.01.2015 22:42 10,5 C 69 % 1018,0 hPa 0,0 l/m 12,6 km/h (3 Bft) W-SW 247 5,1 C 4,7 C 14,8 km/h (3 Bft)
10.01.2015 22:47 10,5 C 68 % 1018,0 hPa 0,0 l/m 12,7 km/h (3 Bft) NW 315 4,8 C 4,8 C 19,5 km/h (3 Bft)
10.01.2015 22:52 10,6 C 68 % 1018,0 hPa 0,0 l/m 13,2 km/h (3 Bft) W 270 4,9 C 4,4 C 15,0 km/h (3 Bft)
10.01.2015 22:57 10,5 C 68 % 1018,1 hPa 0,0 l/m 13,2 km/h (3 Bft) SW 225 4,8 C 4,4 C 12,4 km/h (3 Bft)
10.01.2015 23:02 10,5 C 68 % 1018,1 hPa 0,0 l/m 13,5 km/h (3 Bft) W-SW 247 4,8 C 4,3 C 10,5 km/h (2 Bft)
10.01.2015 23:07 10,5 C 68 % 1018,1 hPa 0,0 l/m 13,2 km/h (3 Bft) W-SW 247 4,8 C 4,4 C 11,6 km/h (2 Bft)
10.01.2015 23:12 10,5 C 69 % 1018,1 hPa 0,0 l/m 12,7 km/h (3 Bft) W 270 5,1 C 4,8 C 26,4 km/h (4 Bft)
10.01.2015 23:17 10,4 C 69 % 1018,1 hPa 0,0 l/m 11,6 km/h (2 Bft) W-SW 247 5,0 C 5,3 C 8,0 km/h (2 Bft)
10.01.2015 23:22 10,4 C 69 % 1018,1 hPa 0,0 l/m 12,1 km/h (2 Bft) W-SW 247 5,0 C 5,1 C 8,5 km/h (2 Bft)
10.01.2015 23:27 10,3 C 69 % 1018,1 hPa 0,0 l/m 11,6 km/h (2 Bft) W 270 4,9 C 5,1 C 24,9 km/h (4 Bft)
10.01.2015 23:32 10,2 C 70 % 1018,1 hPa 0,0 l/m 10,8 km/h (2 Bft) W 270 5,0 C 5,8 C 11,6 km/h (2 Bft)
10.01.2015 23:37 10,1 C 70 % 1018,1 hPa 0,0 l/m 10,8 km/h (2 Bft) W 270 4,9 C 5,6 C 10,9 km/h (2 Bft)
10.01.2015 23:42 10,0 C 71 % 1018,1 hPa 0,0 l/m 11,6 km/h (2 Bft) S-SW 202 5,0 C 4,9 C 17,9 km/h (3 Bft)
10.01.2015 23:47 10,1 C 70 % 1018,1 hPa 0,0 l/m 12,7 km/h (3 Bft) W 270 4,9 C 4,1 C 7,6 km/h (2 Bft)
10.01.2015 23:52 9,9 C 71 % 1018,1 hPa 0,0 l/m 11,7 km/h (2 Bft) W-SW 247 4,9 C 4,6 C 8,5 km/h (2 Bft)
10.01.2015 23:57 9,9 C 71 % 1017,6 hPa 0,0 l/m 10,0 km/h (2 Bft) W-SW 247 4,9 C 5,9 C 15,8 km/h (3 Bft)
_ Min-Zeit 00:02 16:15 23:57 - 19:12 - - 16:10 00:22 19:07
Minimum _ 8,4 C 44 % 1017,6 hPa - 8,9 km/h (2 Bft) - - 1,6 C -0,9 C 6,9 km/h (2 Bft)
_ Max-Zeit 14:27 00:12 07:32 23:57 06:17 - - 04:02 14:22 00:12
Maximum _ 15,4 C 79 % 1022,9 hPa 0,0 l/m 17,7 km/h
SW (3 Bft)
- - 6,6 C 14,0 C 50,5 km/h
W-SW (7 Bft)
Durchschnitt _ 12,3 C 61 % 1020,2 hPa #0,0 l/m 12,8 km/h (3 Bft) W-SW - 4,9 C 7,2 C 16,7 km/h (3 Bft)